Location: Ciserano
(45.5833°N, 9.6000°E)
Time: 04:18:06
(UTC+00:00)

NOSS 7 (H) - Pass Details

Date: 29 November 2020
Orbit: 369 x 1788 km, 63.3° (Epoch: 24 January)

Event Time Altitude Azimuth Distance (km) Brightness Sun altitude
Exits shadow 05:00:32 14° 217° (SW) 1,354 6.6 -16.8°
Maximum altitude 05:03:21 90° 153° (SSE) 408 4.1 -16.3°
Drops below altitude 10° 05:06:18 10° 38° (NE) 1,388 7.2 -15.8°
Sets 05:08:13 0° 39° (NE) 2,230 8.3 -15.5°
